ONEWEB-0031, 45431

Orbit data source: Space-Track

ONEWEB-0031, 45431 is a payload satellite owned by One Web (UK) in LEO that was launched on Sat, 21 Mar 2020 UTC via a SOYUZ-2-1B launch vehicle from the Tyuratam Missile And Space Complex (TTMTR). Payloads include a variety of satellites, spacecraft, and rockets equipped with specific instruments for various scientific and technological missions. These include communications satellites like Starlink; space stations such as the ISS; scientific satellites like the Hubble; Earth observation satellites from companies like Planet Labs, Umbra, and HawkEye 360; GPS; miniature CubeSats for education and research; and military/defense satellites.

Loading next visibility...
ONEWEB-0031 details
Identifier
45431, 2020-020H
Orbit
LEO
Last TLE update17 hours ago
Origin
Flag of UKOne Web (UK)
ManufacturerOne Web
MissionOperational Commercial Communications
Bus & MotorARROW, Unknown motor
Mass148 kg wet, ~140 kg dry
Launch date (UTC)
2020-03-21 (5 years ago)
Launch vehicle
SOYUZ-2-1B
Launch site
Tyuratam Missile And Space Complex (TTMTR)
Object type
Payload
Rocket body
Debris
Shape & HBRTrap Box + 2 Pan, 5 m
Radar Cross Section2.957 m², Medium (>0.1 m² and < 1m²)

Expand to show TLE details & history

TLE from 17 hours ago
0 ONEWEB-0031
1 45431U 20020H   24336.72760182  .00000423  00000-0  11568-2 0  9994
2 45431  87.8895 133.1442 0001443  96.5723 263.5569 13.11418311228930
Epoch: 2024-12-01T17:27Z
Definitive object data (Epoch: 2024-12-01T17:27:44.797Z)
Latitude-0.00003°
Longitude160.14589°
Altitude1,220.69 km
Speed7.244 km/s
True Right ascension08h 52m 34s
True Declination0° 00' 00"
Sunlit
Object was in daylight at TLE epoch
Visualization TLE readout
Latitude0.30204°
Longitude-20.00925°
Altitude1,220.429 km
Speed7.244 km/s
Apparent Right ascension20h 46m 27s
Apparent Declination-17° 53' 05"
Sunlit
Object is in daylight
Visualization observer readout
Local Sidereal Time08:37:56
Azimuth354.608° N
Elevation-67.892°
Doppler factor1
Orbital elements
Apogee altitude1,215.891 km
Perigee altitude1,213.7 km
Semi-major axis7,592.933 km
Eccentricity0.0001443
Inclination87.8895°
RAAN133.1442°
Arg. of periapsis96.5723°
True anomaly263.54047°
Mean anomaly263.5569°
Eccentric anomaly263.54868°
Mean motion3.28042 °/min
BSTAR0.0011568
Orbital period109.74 mins
Loading maneuver chart data...
Loading historical data...
Loading historical data...
Loading historical data...
Loading historical data...
Loading historical data...
Loading historical data...
Loading historical data...

ONEWEB-0031 Visibility forecast

Observer location: undefined°, undefined

Span
Click to sort rows by Start time (UTC) header in descending order
Start Az.
Max El. time (UTC)
Max El. Az.
Max El.
End time (UTC)
End Az.
13 mins2024-12-02 11:52:18.865Z208.057° SW2024-12-02 11:58:18.865Z268.245° W34.547°2024-12-02 12:05:18.865Z346.656° N
10 mins2024-12-02 21:33:18.865Z30.366° NE2024-12-02 21:38:18.865Z81.972° E23.946°2024-12-02 21:43:18.865Z129.102° SE
12 mins2024-12-02 23:22:18.865Z347.651° N2024-12-02 23:28:18.865Z272.768° WNW39.291°2024-12-02 23:34:18.865Z203.178° SW
10 mins2024-12-03 09:53:18.865Z123.446° SE2024-12-03 09:57:18.865Z79.634° E26.306°2024-12-03 10:03:18.865Z22.428° NNE
|